www.pogodaiklimat.ru

Погода и климат >> Архив погоды >> Россия >> Забайкальский край >> Ксеньевская


ПОГОДА в Ксеньевской

  • Прогноз погоды в Ксеньевской
  • Монитор погоды в Ксеньевской
  • Саммари погоды в Ксеньевской
  • Климат Ксеньевской
  • Веб-камера в Ксеньевской

АРХИВ ПОГОДЫ в Ксеньевской

Время (UTC), дата Ветер
(напр.,м/с)
 
Видим.   Явления Облачность Т
(С)
Тd
(С)
f
(%)
Тe
(С)
Тes
(С)
Комфортность P
(гПа)
Po
(гПа)
Тmin
(С)
Tmax
(С)
R
(мм)
R24
(мм)
S
(см)
18 16.07 СВ 1 н/о 9 баллов +12.6 +11.2 91 +13 +13 1009.8 942.7
21 16.07 В 1 50 км 10 баллов +12.8 +11.4 91 +13 +13 1011.2 944.0
00 17.07 СВ 2 50 км 7 баллов +18.4 +13.7 74 +19 +21 1009.8 944.0 +12.0
03 17.07 В 3 50 км 6 баллов +26.3 +13.1 44 +28 +33 жарко 1006.6 942.7
06 17.07 С 1 50 км в посл. час гроза 5 баллов +25.0 +16.2 58 +28 +36 жарко 1005.3 941.3
12 17.07 ЮВ 1 50 км 4 балла +24.2 +13.1 50 +26 +26 жарко 1005.6 941.3 +29.0 0.4
15 17.07 штиль 0 н/о 2 балла +15.7 +12.6 82 +16 +16 1009.1 942.7
18 17.07 В 1 н/о 4 балла +11.9 +10.5 91 +12 +12 1010.0 942.7
21 17.07 штиль 0 200 м туман н/о +10.3 +9.1 92 +10 1010.4 942.7
00 18.07 штиль 0 10 км дым 6 баллов +17.9 +11.9 68 +18 +22 1007.1 941.3 +10.0
03 18.07 З 1 10 км дым 7 баллов +28.7 +11.7 35 +30 +35 жарко 1003.3 940.0
06 18.07 З 1 10 км дым 7 баллов +32.6 +6.7 20 +31 +36 жарко 999.7 937.3
09 18.07 ЮЗ 3 10 км дым 9 баллов +32.7 +8.2 22 +31 +32 жарко 998.2 936.0
12 18.07 З 1 10 км дым 7 баллов +24.6 +11.5 44 +26 +26 жарко 999.9 936.0 +33.5
15 18.07 штиль 0 н/о дым 5 баллов +17.2 +10.1 63 +17 +17 1001.6 936.0
18 18.07 Ю 1 н/о дым 6 баллов +14.0 +10.6 80 +14 +14 1002.3 936.0
21 18.07 Ю 2 10 км дым 9 баллов +14.1 +12.0 87 +14 +14 1003.7 937.3
00 19.07 СВ 2 10 км в посл. час ливневой дождь 9 баллов +15.4 +13.8 90 +15 +16 1003.3 937.3 +13.2 3
03 19.07 СВ 4 10 км дым 9 баллов +21.6 +16.3 72 +25 +26 комфорт 1001.8 937.3
06 19.07 СВ 4 10 км дым 9 баллов +20.4 +16.8 80 +24 +25 комфорт 1002.1 937.3
09 19.07 СВ 3 10 км дым 9 баллов +21.5 +14.9 66 +25 +25 комфорт 1001.9 937.3
12 19.07 СВ 3 10 км дым 10 баллов +19.6 +14.8 74 +22 +22 комфорт 1003.8 938.7 +22.5 0.0
15 19.07 СВ 3 н/о дым 10 баллов +18.5 +14.6 78 +19 +19 1004.1 938.7
18 19.07 СВ 3 н/о дым 10 баллов +17.9 +13.8 77 +18 +18 1002.7 937.3
21 19.07 СВ 3 4000 м слаб. ливневой дождь 10 баллов +15.2 +12.9 86 +14 +14 1003.4 937.3
00 20.07 СВ 1 4000 м слаб. ливневой дождь 10 баллов +14.0 +12.2 89 +14 +14 1002.3 936.0 +14.0 5
03 20.07 СВ 2 4000 м слаб. ливневой дождь 10 баллов +13.3 +11.4 88 +13 +13 1002.5 936.0 +13.3
06 20.07 штиль 0 2000 м ливневой дождь 10 баллов +12.8 +11.0 89 +12 +12 1002.6 936.0
09 20.07 С 1 4000 м слаб. ливневой дождь 10 баллов +13.3 +11.2 87 +13 +13 1002.5 936.0
12 20.07 штиль 0 4000 м слаб. дождь 10 баллов +12.4 +10.8 90 +12 +12 1002.7 936.0 +14.2 18
15 20.07 штиль 0 н/о слаб. дождь 10 баллов +11.7 +10.4 92 +11 +11 1002.9 936.0
18 20.07 штиль 0 н/о слаб. дождь 10 баллов +11.9 +10.6 92 +11 +11 1002.8 936.0
21 20.07 штиль 0 4000 м слаб. дождь 10 баллов +12.3 +11.0 92 +12 +12 1002.7 936.0
00 21.07 СВ 1 4000 м слаб. дождь 10 баллов +13.5 +11.9 90 +14 +14 1002.4 936.0 +11.7 8
03 21.07 СВ 1 4000 м слаб. дождь 10 баллов +14.6 +12.6 88 +15 +15 1002.1 936.0
06 21.07 СВ 1 4000 м слаб. дождь 10 баллов +15.2 +13.0 87 +16 +16 1002.0 936.0
09 21.07 СВ 1 4000 м слаб. дождь 10 баллов +15.3 +13.3 88 +16 +16 1003.4 937.3
12 21.07 штиль 0 4000 м слаб. дождь 10 баллов +14.4 +12.8 90 +14 +14 1003.6 937.3 +15.4 10
15 21.07 штиль 0 н/о слаб. дождь 10 баллов +13.7 +12.1 90 +13 +13 1003.8 937.3
18 21.07 штиль 0 н/о ливневой дождь 10 баллов +13.4 +12.1 92 +13 +13 1003.8 937.3
21 21.07 штиль 0 4000 м слаб. дождь 10 баллов +13.3 +12.0 92 +13 +13 1003.9 937.3
00 22.07 штиль 0 4000 м слаб. дождь 10 баллов +14.4 +12.8 90 +14 +14 1003.6 937.3 +13.2 5
03 22.07 С 1 4000 м слаб. дождь 10 баллов +15.9 +13.4 85 +17 +17 1003.2 937.3
06 22.07 С 3 4000 м в посл. час дождь 10 баллов +16.1 +12.8 81 +16 +16 1003.2 937.3
09 22.07 С 2 50 км 10 баллов +16.0 +11.8 76 +16 +16 1003.2 937.3
12 22.07 С 3 50 км 9 баллов +14.7 +10.7 77 +14 +14 1005.1 938.7 +16.5 2
15 22.07 С 2 н/о 10 баллов +13.4 +9.6 78 +13 +13 1006.8 940.0
18 22.07 СВ 1 н/о 7 баллов +12.6 +9.6 82 +13 +13 1005.6 938.7
21 22.07 В 2 50 км 7 баллов +11.8 +9.5 86 +11 +11 1005.8 938.7
00 23.07 штиль 0 50 км 10 баллов +14.5 +10.1 75 +14 +14 1005.1 938.7 +11.6
03 23.07 СВ 4 50 км 6 баллов +20.3 +10.4 53 +22 +26 комфорт 1003.8 938.7
06 23.07 СВ 4 50 км 7 баллов +22.0 +8.8 43 +23 +26 комфорт 1001.9 937.3
09 23.07 В 5 50 км 7 баллов +21.8 +8.3 42 +23 +24 комфорт 1003.5 938.7
12 23.07 Ю 2 50 км 2 балла +17.0 +11.3 69 +17 +17 1005.9 940.0 +23.1

 

Местоположение метеостанции Ксеньевская (Забайкальский край, Россия): широта 53.55 долгота 118.70 высота над уровнем моря 582 м.

В архиве по умолчанию представлена погода в Ксеньевской за последнюю неделю. Архивные данные за месяц целиком и за предыдущие месяцы, начиная с января 2011 года, Вы можете получить, выбрав интересующий диапазон дат из раскрывающегося списка и нажав кнопку "Ввод!".


*Определитесь, кто Вы:
робот инопланетянин человек

Внимание! Время в таблицах - всемирное. Для получения местного времени необходимо прибавить поправку, которая равна 9 ч.

Смотрите также архив погоды в соседних городах и на ближайших метеорологических станциях:

Погода в Могоче (Забайкальский край, Россия) (70 км)
Погода в Усть-Карске (Забайкальский край, Россия) (95 км)
Погода в Урюпино (Забайкальский край, Россия) (124 км)
Погода в Тупике (Забайкальский край, Россия) (125 км)
Погода в Амазаре (Забайкальский край, Россия) (143 км)
Погода в Чернышевске (Забайкальский край, Россия) (161 км)
Погода в Сретенске (Забайкальский край, Россия) (161 км)
Погода в Усть-Каренге (Забайкальский край, Россия) (174 км)
Погода в Зилово (Забайкальский край, Россия) (183 км)
Погода в Покровке (Забайкальский край, Россия) (187 км)

Пояснения к столбцам:

Ветер - указаны скорость ветра в м/с - средняя за 10 мин, порывы в срок и между сроками (в фигурных скобках) и направление, откуда дует ветер: С - северный, СВ - северо-восточный, В - восточный, ЮВ - юго-восточный, Ю - южный, ЮЗ - юго-западный, З - западный, СЗ - северо-западный.
Видимость - горизонтальная дальность видимости в метрах или километрах. При видимости от 1 до 10 км при отсутствии осадков обычно наблюдается дымка, при ухудшении видимости до 1 км и менее - туман. В сухую погоду видимость может ухудшаться дымом, пылью или мглою.
Явления - указаны атмосферные явления, наблюдавшиеся в срок или в последний час перед сроком; фигурными скобками обозначены явления, наблюдавшиеся между сроками (за 1-3 часа до срока); квадратными скобками обозначены град или гололедные отложения с указанием их диаметра в мм.
Облачность - указаны через наклонную черту общая и нижняя облачность в баллах и высота нижней границы облаков в метрах; квадратными скобками обозначены формы облаков: Ci - перистые, Cs - перисто-слоистые, Cc - перисто-кучевые, Ac - высококучевые, As - высокослоистые, Sc - слоисто-кучевые, Ns - слоисто-дождевые, Cu - кучевые, Cb - кучево-дождевые. Подробнее классификацию облаков см. в Атласе облаков (PDF).
T - Температура воздуха - температура, измеренная на высоте 2 м над землей.
Td - Температура точки росы - температура, при понижении до которой содержащийся в воздухе водяной пар достигнет насыщения.
f - Относительная влажность воздуха - влажноcть воздуха, измеренная на высоте 2 м над землей.
Te - Эффективная температура - температура, которую ощущает одетый по сезону человек в тени. Характеристика душности погоды. При расчете учитывается влияние влажности воздуха и скорости ветра на теплоощущения человека.
Tes - Эффективная температура на солнце - температура, которую ощущает человек, с поправкой на солнечный нагрев. Характеристика знойности погоды. Зависит от высоты солнца над горизонтом, облачности и скорости ветра. Ночью, в пасмурную погоду, а также при ветре 12 м/с и более поправка равна нулю.
P - Атмосферное давление - приведенное к уровню моря атмосферное давление.
Po - Атмосферное давление - измеренное на уровне метеостанции атмосферное давление.
Tmin - Минимальная температура - минимум температуры воздуха на высоте 2 м над землей.
Tmax - Максимальная температура - максимум температуры воздуха на высоте 2 м над землей.
R - Количество осадков - Количество выпавших осадков за период времени, мм. При наведении курсора мыши на число - период времени, за который выпало указанное количество осадков.
R24 - Количество осадков - Количество выпавших осадков за 24 часа, мм.
S - Снежный покров - Высота снежного покрова, см. При наведении курсора мыши на число - состояние снежного покрова и степень покрытия местности в баллах.